Location: Unspecified
(20.0000°S, 0.0000°E)
Time: 00:41:29
(UTC+00:00)

OTV 5 (USA 277) - Pass Details

Date: 22 May 2019
Orbit: 310 x 325 km, 54.5° (Epoch: 08 May)

Event Time Altitude Azimuth Distance (km) Brightness Sun altitude
Exits shadow 05:48:46 10° 224° (SW) 1,266 ? -8.6°
Reaches altitude 10° 05:48:48 10° 224° (SW) 1,253 ? -8.6°
Maximum altitude 05:51:33 58° 304° (NW) 385 ? -8.0°
Drops below altitude 10° 05:54:15 10° 25° (NNE) 1,237 ? -7.4°
Sets 05:56:14 0° 29° (NNE) 2,062 ? -6.9°
